Погода в Реутово

Россия / Орловская область     53°25′15″N   35°40′48″E
темп.,
°C
ветер,
м/с
пор.,
м/с
влажн.,
%
обл.,
%
осадки,
мм/ч
давл.,
гПа
погр.,
м
24 января, пн
пн2400:00−16св23100100 0.0 103435
03:00−13св36100100 0.1 1034114
06:00−11ссв3895100 0.1 1035137
09:00−13св3799100 0.1 1035106
12:00−7св479182 0.1 1034375
15:00−8ссв479339 0.1 1034294
18:00−13ссв369865 0.0 103481
21:00−15св249974 0.0 103355
25 января, вт
вт2500:00−16ссв2410089 0.0 103243
03:00−18св2210098 0.1 103119
06:00−19ссв11100100 0.0 10299
09:00−19ссв1110096 0.1 10289
12:00−12ююв119593 0.0 102597
15:00−10ююз239470 0.1 1023171
18:00−16ююз22100100 0.0 102136
21:00−16юз25100100 0.1 102062
26 января, ср
ср2600:00−13юз3796100 0.0 1018141
03:00−9юз3796100 1.0 1017224
06:00−9зюз2696100 0.8 1016229
09:00−10з259798 1.1 1017130
12:00−6с369298 0.1 1017339
15:00−5ссз349192 0.2 1018463
18:00−10сз249876 0.1 101969
21:00−14сз2210091 0.1 102021
27 января, чт
чт2700:00−18зсз11100100 0.0 10219
03:00−18зюз21100100 0.1 102013
06:00−18юз21100100 0.1 101921
09:00−17ююз23100100 0.1 101956
12:00−10ююз4794100 0.0 1017229
15:00−9ю499487 0.0 1015344
18:00−10ю4119592 0.0 1014285
21:00−11ю4119388 0.0 1013284
28 января, пт
пт2800:00−10ю51294100 0.1 1011322
03:00−9ю51294100 0.2 1009343
06:00−8ююв61395100 0.1 1006355
09:00−7ююв61495100 0.9 1004466
12:00−4ю61396100 1.5 1002513
15:00−2ююз51196100 2.6 1001520
18:000юз499696 0.4 1000541
21:00−1юз4109598 0.6 1000439